Regional Weather Roundup
Issued by NWS

Home | Current Version | Previous Version | Text Only | Print | Product List | Glossary On
Versions: 1 2 3 4 5 6 7 8 9 10 11 12 13 14 15 16 17 18 19 20 21 22 23 24 25 26 27 28 29 30 31 32 33 34 35 36 37 38 39 40 41 42 43 44 45 46 47 48 49 50
000
ASUS43 KTOP 261308
RWRKS

WEATHER ROUNDUP FOR KANSAS
NATIONAL WEATHER SERVICE GOODLAND KS
700 AM CST WED NOV 26 2014

NOTE:  "FAIR" INDICATES FEW OR NO CLOUDS BELOW 12,000 FEET WITH NO
SIGNIFICANT WEATHER AND/OR OBSTRUCTIONS TO VISIBILITY.

KSZ001>006-013>018-027>032-041>047-261400-
NORTHWEST KANSAS

CITY           SKY/WX    TMP DP  RH WIND       PRES   REMARKS
GOODLAND       MOCLDY    30  27  88 NW21G26   30.16R WCI  17
HAYS           PTCLDY    39  25  56 NW17G25   30.09R WCI  30
HILL CITY      MOCLDY    38  25  59 NW14      30.10R WCI  30
RUSSELL        PTCLDY    35  28  75 W10       30.07R WCI  27
$$

KSZ061>065-074>080-084>089-261400-
SOUTHWEST KANSAS

CITY           SKY/WX    TMP DP  RH WIND       PRES   REMARKS
DODGE CITY     CLOUDY    38  27  64 NW17G28   30.13R WCI  28
ELKHART          N/A     30  23  75 W10         N/A  WCI  21
GARDEN CITY    MOCLDY    34  27  75 NW17      30.17R WCI  23
GREAT BEND     CLOUDY    39  27  60 NW15      30.10R WCI  31
LIBERAL        CLEAR     32  25  74 W16       30.20R WCI  21
PRATT          CLOUDY    41  32  70 NW17      30.10R
$$

KSZ066>073-081>083-090>101-261400-
SOUTHEAST KANSAS

CITY           SKY/WX    TMP DP  RH WIND       PRES   REMARKS
CHANUTE        CLOUDY    37  27  67 NW3       29.99S
COFFEYVILLE    CLOUDY    41  27  57 W5        30.00R
HUTCHINSON     MOCLDY    44  27  51 N15G25    30.06R
MEDICINE LODGE   N/A     44  33  65 N16       30.08R
NEWTON         CLOUDY    41  27  56 NW14      30.05R
PARSONS        CLOUDY    39  28  64 CALM      30.00R
WICHITA INTL   CLOUDY    44  29  55 NW15      30.03R
WICHITA JABRA  CLOUDY    41  30  65 NW14      30.03R
WICHITA MCCONL CLOUDY    43  30  60 N13       30.03R
WINFIELD       CLOUDY    39  31  72 NW7       30.05R
$$

KSZ007>012-019>026-033>040-048>060-102>105-261400-
NORTHEAST KANSAS

CITY           SKY/WX    TMP DP  RH WIND       PRES   REMARKS
CONCORDIA      CLOUDY    40  25  55 NW15      30.02R WCI  32
EMPORIA        CLEAR     37  30  75 NW12      29.99R WCI  29
LAWRENCE       CLEAR     36  31  82 W8        29.96R
MANHATTAN      PTCLDY    40  27  59 VRB7      30.00R
MARYSVILLE     CLOUDY    37  28  70 NW18G28   29.97R WCI  27
OLATHE IND     MOCLDY    35  33  92 SW7       29.95R
OLATHE EXE     MOCLDY    36  34  92 SW6       29.94R
SALINA         CLOUDY    43  28  55 NW15      30.04R
TOPEKA BILLARD CLOUDY    40  31  70 W9        29.97R
TOPEKA FORBES  PTCLDY    39  31  72 NW13      29.96R WCI  31
$$


USA.gov is the U.S. government's official web portal to all federal, state and local government web resources and services.